Content
SEND FEEDBACK

Daily
Averages
Monthly
Summary
United Kingdom

LONDON, ENGLAND


Home > Europe > United Kingdom > England
Elevation: 203 feet     Latitude: 51 09N     Longitude: 000 11W

WEATHER
 
SELECT A DAY
Number of Records: 293,798;   Date Range: 7/1/96 - 8/25/14
 
SHARE

PRINT THIS DATA

[ ← Previous Day ]
WEATHER ALMANAC - JULY 1, 2013
[ Next Day → ]
[ °C ]   °F
We're sorry. There is no daily almanac available for London, England on July 1, 2013.
WEATHER BY HOUR - JULY 1, 2013
[ °C ]   °F
Local TimeTemperatureDewpointHumidityBarometerVisibilityWind DirectionWind SpeedGust SpeedPrecipitationEventsConditions
12:50 AM55.4 °F51.8 °F88 %30.09 inWest (260°)6.9 mphClear
1:20 AM53.6 °F50.0 °F88 %30.09 inWest (260°)5.8 mphClear
1:50 AM55.4 °F51.8 °F88 %30.09 in6.2 miSW (230°)4.6 mphScattered Clouds
2:20 AM55.4 °F51.8 °F88 %30.06 in6.2 miSW (230°)4.6 mphScattered Clouds
2:50 AM55.4 °F51.8 °F88 %30.06 in6.2 miSW (230°)4.6 mphMostly Cloudy
3:20 AM55.4 °F51.8 °F88 %30.06 in6.2 miSSW (210°)4.6 mphPartly Cloudy
3:50 AM55.4 °F51.8 °F88 %30.06 in6.2 miSW (220°)5.8 mphScattered Clouds
4:20 AM55.4 °F51.8 °F88 %30.06 in6.2 miSW (230°)6.9 mphMostly Cloudy
4:50 AM55.4 °F51.8 °F88 %30.06 in6.2 miSW (220°)5.8 mphMostly Cloudy
5:20 AM55.4 °F51.8 °F88 %30.06 in6.2 miSW (230°)6.9 mphScattered Clouds
5:50 AM55.4 °F51.8 °F88 %30.06 in6.2 miSW (220°)5.8 mphPartly Cloudy
6:20 AM55.4 °F51.8 °F88 %30.06 in6.2 miSW (230°)6.9 mphPartly Cloudy
6:50 AM57.2 °F51.8 °F82 %30.06 inSW (230°)6.9 mphClear
7:20 AM57.2 °F51.8 °F82 %30.06 inWSW (250°)9.2 mphClear
7:50 AM59.0 °F51.8 °F77 %30.06 in6.2 miWSW (240°)9.2 mphScattered Clouds
8:20 AM59.0 °F51.8 °F77 %30.06 in6.2 miWSW (240°)9.2 mphScattered Clouds
8:50 AM60.8 °F51.8 °F72 %30.06 in6.2 miWSW (240°)9.2 mphScattered Clouds
9:20 AM60.8 °F50.0 °F68 %30.06 in6.2 miWest (260°)9.2 mphScattered Clouds
9:50 AM62.6 °F50.0 °F63 %30.06 in6.2 miSW (230°)9.2 mphScattered Clouds
10:20 AM62.6 °F50.0 °F63 %30.06 in6.2 miWSW (250°)10.4 mphMostly Cloudy
10:50 AM62.6 °F50.0 °F63 %30.06 in6.2 miWest (260°)10.4 mphScattered Clouds
11:20 AM64.4 °F50.0 °F59 %30.06 in6.2 miWest (270°)10.4 mphScattered Clouds
11:50 AM64.4 °F50.0 °F59 %30.04 in6.2 miWest (270°)11.5 mphScattered Clouds
12:20 PM66.2 °F50.0 °F56 %30.04 in6.2 miWest (260°)9.2 mphScattered Clouds
12:50 PM66.2 °F50.0 °F56 %30.04 in6.2 miWSW (250°)10.4 mphScattered Clouds
1:20 PM68.0 °F50.0 °F52 %30.04 in6.2 miWSW (240°)9.2 mphScattered Clouds
1:50 PM68.0 °F50.0 °F52 %30.04 in6.2 miSW (230°)10.4 mphScattered Clouds
2:20 PM68.0 °F50.0 °F52 %30.01 in6.2 miWest (260°)10.4 mphScattered Clouds
2:50 PM66.2 °F50.0 °F56 %30.01 in6.2 miWSW (240°)10.4 mphScattered Clouds
3:20 PM68.0 °F50.0 °F52 %30.01 in6.2 miWest (270°)11.5 mphScattered Clouds
3:50 PM68.0 °F50.0 °F52 %30.01 in6.2 miWest (280°)11.5 mphScattered Clouds
4:20 PM69.8 °F50.0 °F49 %30.01 in6.2 miWest (280°)11.5 mphScattered Clouds
4:50 PM66.2 °F50.0 °F56 %30.01 in6.2 miWNW (290°)10.4 mphScattered Clouds
5:20 PM66.2 °F50.0 °F56 %30.01 in6.2 miWest (280°)8.1 mphScattered Clouds
5:50 PM68.0 °F50.0 °F52 %30.01 in6.2 miWest (280°)9.2 mphScattered Clouds
6:20 PM66.2 °F48.2 °F52 %30.01 in6.2 miWNW (290°)10.4 mphScattered Clouds
6:50 PM66.2 °F48.2 °F52 %30.01 in6.2 miWest (280°)8.1 mphScattered Clouds
7:20 PM66.2 °F50.0 °F56 %30.01 in6.2 miWNW (290°)6.9 mphScattered Clouds
7:50 PM66.2 °F48.2 °F52 %30.01 in6.2 miWNW (300°)5.8 mphScattered Clouds
8:20 PM64.4 °F48.2 °F56 %30.01 in6.2 miWest (280°)8.1 mphScattered Clouds
8:50 PM62.6 °F48.2 °F59 %30.01 in6.2 miWest (280°)5.8 mphScattered Clouds
9:20 PM62.6 °F48.2 °F59 %30.01 in6.2 miSW (220°)4.6 mphScattered Clouds
9:50 PM60.8 °F53.6 °F77 %30.01 in6.2 miWSW (240°)6.9 mphPartly Cloudy
10:20 PM59.0 °F53.6 °F82 %30.01 in5.6 miSW (230°)5.8 mphPartly Cloudy
10:50 PM59.0 °F53.6 °F82 %30.01 in5.6 miWSW (240°)5.8 mphMostly Cloudy
11:20 PM57.2 °F53.6 °F88 %30.01 in5.6 miSW (230°)4.6 mphScattered Clouds
11:50 PM57.2 °F51.8 °F82 %30.01 in5.6 miSW (220°)4.6 mphScattered Clouds
Hourly data recorded from EGKK, located miles away from London, England







STORIES FROM OUR PARTNERS